Regional Weather Roundup
Issued by NWS Wakefield, VA

Home | Current Version | Previous Version | Graphics & Text | Print | Product List | Glossary On
Versions: 1 2 3 4 5 6 7 8 9 10 11 12 13 14 15 16 17 18 19 20 21 22 23 24 25 26 27 28 29 30 31 32 33 34 35 36 37 38 39 40 41 42 43 44 45 46 47 48
000
ASUS41 KAKQ 290114
RWRAKQ

REGIONAL WEATHER ROUNDUP
NATIONAL WEATHER SERVICE WAKEFIELD VA
900 PM EDT TUE JUL 28 2015

Note: "fair" indicates few or no clouds below 12,000 feet with no
significant weather and/or obstructions to visibility. * = Denotes
station may not report precipitation (e.g., rain,snow,etc.),
thunder or fog.

VAZ042-051-052>054-056-290200-
NORTHERN VIRGINIA

CITY           SKY/WX    TMP DP  RH WIND       PRES   REMARKS
WASH NATIONAL  PTCLDY    81  73  76 SW7       30.00R
DULLES         CLOUDY    73  71  93 CALM      30.01R
FORT BELVOIR   MOCLDY    75  73  94 CALM      30.00R FOG
QUANTICO       CLOUDY    79  72  79 W5        29.99R
FREDERICKSBRG* MOCLDY    77  77 100 CALM      29.98S FOG
STAFFORD*      MOCLDY    73  71  92 N3        30.04R
WARRENTON      CLOUDY    74  73  98 CALM      30.00R
CULPEPER*      LGT RAIN  73  72  98 CALM      30.01R
MANASSAS*      NOT AVBL
LEESBURG*      PTCLDY    77  75  94 SW10      30.00F
WINCHESTER     CLOUDY    79  72  78 SE9       30.00R
FRONT ROYAL*   FAIR      77  70  78 S3        29.99R
LURAY*         FAIR      79  72  78 SW7       30.01S
$$

VAZ048-049-060>072-079>083-290200-
CENTRAL AND SOUTH CENTRAL VIRGINIA

CITY           SKY/WX    TMP DP  RH WIND       PRES   REMARKS
RICHMOND       MOCLDY    80  74  81 S3        29.99R
CHESTERFIELD*  FAIR      79  64  61 CALM      30.01R
PETERSBURG*    CLOUDY    78  78 100 CALM      30.01R
HANOVER        MOCLDY    75  74  96 NE3       30.01R
TAPPAHANNOCK*  MOCLDY    76  73  90 CALM      29.99S FOG
QUINTON*       FAIR      77  75  93 CALM      29.98S
CHARLOTTSVILLE LGT RAIN  74  71  91 W3        30.01F
GORDONSVILLE*  CLOUDY    73  72  94 CALM      30.01R
ORANGE*        LGT RAIN  75  73  94 CALM      30.02S
LOUISA*        CLOUDY    75  73  94 CALM      30.01R FOG
BUMPASS*       FAIR      74  73  97 CALM      30.00R
FARMVILLE*     LGT RAIN  75  75 100 CALM      30.00R
CREWE*         FAIR     N/A N/A N/A CALM      30.00R
FORT PICKETT*  FAIR      75  74  97 CALM      30.01R
CHASE CITY*    FAIR      75  75 100 CALM      30.01R
CLARKSVILLE*   FAIR      72  72 100 E3        29.99S
SOUTH HILL*    PTCLDY    74  74  99 CALM      30.06R
LAWRENCEVILLE* FAIR      75  75 100 CALM      30.00R
EMPORIA*       MOCLDY    77  73  88 CALM      30.01R
$$

VAZ088>098-290200-
SOUTHEAST VIRGINIA

CITY           SKY/WX    TMP DP  RH WIND       PRES   REMARKS
NORFOLK        PTCLDY    82  71  69 S7        29.98R
VIRGINIA BEACH MOCLDY    81  72  74 S8        29.98R
NORFOLK NAVAL  MOCLDY    79  69  71 CALM      29.99S
WEST POINT*    MOCLDY    80  75  85 CALM      29.99S
SALUDA*        FAIR      78  75  93 S3        29.98R
NEWPORT NEWS   MOCLDY    77  70  79 CALM      29.98R
LANGLEY AFB    NOT AVBL
FORT EUSTIS    MOCLDY    79  75  89 S2        29.97R
WILLIAMSBURG*  MOCLDY    81  73  78 CALM      29.99S
HR EXEC AP*    FAIR      75  70  83 CALM      30.00S
FRANKLIN*      CLOUDY    78  73  85 CALM      29.99R
WAKEFIELD      CLOUDY    77  74  90 CALM      29.99R
$$

VAZ020-022-025-037-045-290200-
WEST CENTRAL AND SOUTHWEST VIRGINIA

CITY           SKY/WX    TMP DP  RH WIND       PRES   REMARKS
STAUNTON*      CLOUDY    78  71  79 S7        30.05S
WAYNESBORO*    CLOUDY    72  72  98 S3        30.06R
HOT SPRINGS VA RAIN      68  68 100 E6        30.14S VSB<1/4
LYNCHBURG      LGT RAIN  74  73  97 CALM      30.05R
DANVILLE       MOCLDY    75  72  90 W6        30.00R
SOUTH BOSTON*  FAIR      73  72  95 CALM      30.00R
MARTINSVILLE   CLOUDY    77  77 100 CALM      30.05R
ROANOKE        MOCLDY    76  73  91 SE10      30.04R
BLACKSBURG     PTCLDY    73  70  90 CALM      30.09R
DUBLIN*          N/A     76  72  87 CALM      30.07S
MARION*        PTCLDY    77  71  82 CALM      30.10S
HILLSVILLE*    MOCLDY    71  70  96 S5        30.09F
RICHLANDS*     FAIR      77  70  77 NE3       30.08R
WISE*          PTCLDY    77  66  69 CALM      30.09R
ABINGDON*      LGT RAIN  78  68  71 W3        30.06R
$$

MDZ021>025-VAZ099-100-290200-
SOUTHERN MARYLAND AND THE DELMARVA PENINSULA

CITY           SKY/WX    TMP DP  RH WIND       PRES   REMARKS
PATUXENT RIVER MOCLDY    77  72  84 CALM      29.99R
BAY BRIDGE APT   N/A     81  73  78 SW5       29.99R
LEONARDTOWN    MOCLDY    77  70  78 CALM      30.01R
DOVER          PTCLDY    80  74  83 S6        29.98R
GEORGETOWN     MOCLDY    76  72  87 CALM      30.00R
EASTON         MOCLDY    82  75  78 SW5       30.03R
CAMBRIDGE      PTCLDY    79  72  78 CALM      29.99R
SALISBURY      CLEAR     76  74  93 CALM      29.99R
OCEAN CITY     PTCLDY    77  71  82 CALM      30.00R
WALLOPS ISLAND CLEAR     78  73  84 SW7       30.00R
ACCOMACK*      PTCLDY    75  72  88 S3        29.99R
$$

NCZ012>017-030>032-290200-
NORTH CENTRAL AND EASTERN NORTH CAROLINA

CITY           SKY/WX    TMP DP  RH WIND       PRES   REMARKS
ROANOKE RAPIDS FAIR      79  70  73 S3        29.98S
RALEIGH        LGT RAIN  80  74  81 NE3       29.99S
ELIZABETH CITY PTCLDY    80  70  71 S5        29.99R
AHOSKIE*       MOCLDY    76  66  70 CALM      29.99R
EDENTON*         N/A     80  71  72 S6        29.99R
CURRITUCK*     PTCLDY    79  70  74 CALM      30.00R
KILL DEVIL HLS PTCLDY    79  69  70 CALM      29.99R
MANTEO         PTCLDY    77  70  79 E3        30.00S
CAPE HATTERAS  PTCLDY    78  69  73 E5        29.99S
TARBORO*         N/A     79  72  79 CALM      29.99R
GOLDSBORO      MOCLDY    83  74  73 E5        29.97R
WASHINGTON     PTCLDY    78  70  77 CALM      29.99R
GREENVILLE     MOCLDY    81  72  74 SE5       30.00R
NEW BERN       MOCLDY    79  69  71 CALM      29.99S
WILMINGTON     MOCLDY    78  71  79 NE5       29.98R
$$

VAZ048-290200-
ELSEWHERE

CITY           SKY/WX    TMP DP  RH WIND       PRES   REMARKS
HARRISBURG PA  PTCLDY    79  71  76 CALM      29.97S
BALTIMORE      PTCLDY    81  72  74 SW6       29.98R
ANNAPOLIS      CLEAR     82  72  71 SW7       29.98R
ANDREWS AFB    PTCLDY    78  72  83 W3        30.00R
PHILADELPHIA   PTCLDY    84  71  65 S10       29.97R
HENDERSON NC   CLOUDY    75  72  91 CALM      30.00S
GREENSBORO     CLOUDY    77  75  93 E6        29.99F
ROCKY MOUNT    MOCLDY    79  71  76 CALM      29.98R
$$

VAZ100-290200-
MARINE

STATION/POSITION TIME  TEMP    WIND        PRES    WAVE   SWELL
                       AIR SEA DIR/SP/G            HT/PER HT/PER
                 (UTC) (F)     (DEG/KT/KT) (MB)    (FT/S) (FT/S)
BRANDYWINE LGT   0000   78 72  220/ 14/ 15 1015.3R
CAPE MAY NJ      0000   78 81  190/  5/  7 1015.1R
LEWES DE         0000   78 75  220/  4/  6 1015.0R
15NM E FENWICK I 0050   79 79  210/ 10/ 12 1015.7R   3/ 9   2/ 9
OCEAN-CITY-INLET 0000   77 75  210/  8/  9 1014.3S
WACHAPREAGUE VA  0000   81 85  190/  8/ 10 1015.3S
GOOSES REEF MD   0100   82 81  210/  6/  6 1016.7R
COVE POINT MD    0000   80     250/  7/ 11 1015.0F
SOLOMONS ISLAND  0000      85                N/A
BISHOPS HEAD MD  0000   82 85  220/  5/  8 1014.1S
POTOMAC MD       0100   82 84  220/  4/  6 1014.5R   1
CAMBRIDGE MD     0000   83 83  160/  4/  6 1014.0F
LEWISETTA VA     0000   81 83  260/  4/  4 1014.5F
RAPPAHANNOCK LGT 0000          150/  9/ 10 1015.5F
STINGRAY PT      0000   83 83  180/ 10/ 12 1014.8F   1/ 2
YORK RVR RNG VA  0000   85     230/  7/  7 1014.4F
YORKTOWN VA      0000   83 84  220/  3/  3 1014.7S
JAMESTOWN VA     0100   82 84  170/  4/  4   N/A
DOMINION TERM VA 0000   84     190/  4/  5 1014.8R
KIPTOPEKE VA     0000      83  160/ 10/ 12   N/A
CHES BAY BRIDGE  0000   82 76  120/  7/ 10 1014.7R
CAPE HENRY VA    0000   80     150/  8/ 12   N/A
CHESAPEAKE LGHT  0000   80     170/ 13/ 14 1016.0R
WILLOUBY STN VA  0000   84     250/  4/  6 1015.9S
CAPE HENRY BUOY  0058      81                N/A     2/11
1ST LANDING BUOY 0100      80              1014.9R   1/ 5
CAPE CHARLES BUO 0056      81                N/A     2/11   2/11
OFFSHORE WE BUOY 0011      82                N/A     2/11   2/11
64NM E OF VA BCH 0050   80 81  160/  6/  6 1015.6R   3/ 6   3/ 6
DUCK PIER NC     0000   80 77  140/ 14/ 15 1014.3F
44100 DUCK FRF   0054      82                N/A     2/12   2/12
44056 DUCK FRF   0011      81                N/A     2/11   2/11
OREGON INLET NC  0000   80 86  130/  3/  5 1015.5F
HATTERAS NC      0000   81 84   70/  6/  7 1015.1S
CAPE LOOKOUT NC  0100   81      80/ 10/ 11 1014.9R
$$


USA.gov is the U.S. government's official web portal to all federal, state and local government web resources and services.